CAPE
0 0 0 6 4 4 11 0 17 86 223 264 514 440 372 298 197 78 19 5 0 0 0 4 0 7 10 5 7 30 28 19 0 0 0 0 0 2 10 26 6 30 19 21
0 4 0 0 0 11 30 60 0 319 294 219 406 501 255 236 252 38 1 11 9 22 21 6 19 11 0 0 13 39 30 19 8 0 0 2 1 3 16 21 34 13 9 27
3 0 0 0 23 13 20 13 0 7 106 210 416 367 288 168 162 27 25 67 70 67 46 4 2 11 20 24 35 35 25 25 12 5 5 10 4 7 3 4 6 4 14 28
0 0 0 0 36 0 30 0 0 39 82 55 342 74 327 214 165 125 107 137 90 112 16 3 14 12 26 33 27 29 30 16 8 15 14 19 16 13 9 29 35 22 34 34
0 0 9 31 0 0 22 1 27 36 88 21 120 1 266 314 190 109 263 100 141 11 0 6 2 17 20 16 11 14 15 13 11 6 19 11 9 17 30 27 15 29 24 48
2 0 0 0 0 0 0 7 60 70 91 49 149 210 242 367 219 275 185 121 2 0 0 0 0 4 3 2 0 4 12 10 13 35 22 21 13 12 17 16 16 25 40 44
4 7 0 0 3 50 66 47 10 42 24 41 117 133 203 259 217 326 235 6 0 0 0 0 22 6 4 1 0 0 1 2 8 11 28 17 16 19 18 18 21 8 19 35
54 19 0 0 0 1 0 48 50 12 0 0 25 190 7 102 205 148 57 44 1 0 0 14 30 17 2 0 0 2 1 6 9 36 34 21 24 14 15 17 16 8 9 31
44 49 0 0 0 0 0 0 0 0 10 46 169 186 136 140 163 121 144 3 0 12 18 31 39 2 0 1 2 1 1 6 26 21 19 20 15 19 15 11 7 24 24 18
128 38 14 1 0 24 0 0 0 2 14 3 115 176 143 58 66 128 93 50 52 38 15 8 3 0 14 6 1 2 9 32 10 21 14 14 18 5 8 15 16 16 11 23
55 119 99 34 3 0 0 0 1 17 191 27 70 184 85 39 19 71 100 59 21 19 17 5 20 22 1 1 19 23 21 13 13 18 10 15 11 5 10 10 14 16 13 21
0 0 0 23 0 0 2 2 35 75 90 156 78 179 39 10 21 19 42 26 21 20 10 7 14 0 0 0 6 6 13 2 9 14 25 17 0 1 18 18 14 9 3 14
0 25 0 40 14 6 1 1 3 42 228 230 82 110 71 12 24 40 37 21 0 1 14 1 10 2 0 5 9 16 7 10 25 29 10 0 2 2 18 10 27 13 13 8
0 0 0 5 2 0 4 0 0 6 67 5 66 24 3 4 22 48 34 6 12 18 1 10 0 0 0 12 5 15 17 14 20 4 0 4 20 22 26 10 1 19 18 7
0 8 16 5 0 0 1 1 0 0 0 6 11 61 80 12 16 28 19 16 14 3 8 0 0 0 0 9 21 13 5 21 23 18 2 0 2 21 3 7 18 23 20 13
8 19 36 8 0 0 6 2 1 3 9 12 11 100 14 26 25 17 22 6 10 10 0 0 0 14 5 15 10 12 15 20 19 9 2 13 5 12 1 13 22 25 39 33
33 49 63 19 0 0 67 11 3 0 5 6 4 12 15 36 24 8 5 3 9 0 1 1 18 11 13 10 8 11 19 13 16 28 30 22 1 1 0 3 4 4 3 0
56 51 43 27 6 76 59 6 0 1 30 3 0 1 8 11 12 15 2 0 2 5 4 19 19 23 18 4 14 14 23 14 7 7 5 10 6 2 0 9 14 15 20 15
51 132 88 13 10 7 80 0 0 0 27 3 0 0 21 8 14 0 0 0 1 8 22 13 21 22 11 6 20 12 20 19 8 6 2 17 12 23 31 20 14 17 21 0
45 41 10 2 5 63 40 0 0 2 63 0 0 0 1 0 29 0 0 1 5 14 21 14 21 23 4 17 25 22 20 21 24 20 2 9 18 12 0 1 0 0 0 1
119 44 4 0 4 124 28 0 0 79 59 0 0 0 1 4 0 2 2 10 6 20 17 14 16 7 4 17 19 10 22 12 16 15 1 17 23 23 17 22 26 17 13 34
57 45 19 14 37 150 87 4 0 18 12 0 1 0 2 1 8 1 8 14 1 30 16 11 16 15 20 8 5 9 32 17 34 12 5 18 33 26 50 20 16 15 31 43
111 0 22 1 219 231 20 40 9 4 3 0 1 0 0 6 1 5 23 18 19 30 21 17 11 23 17 13 14 33 17 26 23 5 14 17 30 29 52 32 12 28 37 25
43 0 105 254 45 9 61 10 9 2 0 0 0 0 3 6 3 4 24 29 34 28 3 26 2 26 21 20 33 26 24 15 13 26 25 26 28 37 29 17 0 0 0 0
34 235 129 37 0 62 70 1 2 1 0 0 0 0 1 6 5 21 24 23 20 17 17 25 15 24 29 9 21 19 11 18 21 24 27 18 46 51 9 0 0 0 0 0
70 337 308 94 1 0 0 0 0 1 0 0 0 0 2 2 3 16 21 20 18 16 14 29 32 19 2 29 6 19 31 31 26 6 45 28 31 39 42 13 0 0 0 0
CIN
0 0 0 -23 -24 -16 -4 0 -13 -13 -30 -12 -16 -56 -91 -99 -121 -147 -168 -1 0 0 0 -1 0 -7 -3 -2 -3 -1 -1 -1 0 0 0 0 0 -2 -2 -1 -14 -1 -3 -1
-1 -8 0 0 -1 -2 -5 -6 0 -7 -35 -28 -6 -10 -127 -99 -28 -150 -1 -22 -9 -87 -76 -2 -1 -1 -1 0 -1 -1 -1 -2 -2 0 0 -2 -1 -1 -2 -2 -1 -8 -7 -7
-15 0 0 0 -3 -3 -17 -8 0 -5 -11 -38 -2 -7 -120 -79 -74 -103 -91 -39 -5 -4 -5 -1 -1 -1 -2 -2 -2 -2 -1 -1 -1 -2 -2 -2 -2 -3 -9 -6 -18 -27 -6 -4
0 0 0 0 -3 0 -10 0 0 -3 -5 -11 -33 -4 -8 -61 -22 -8 -24 -4 -3 -3 -14 -5 -3 -2 -3 -2 -2 -4 -1 -1 -1 -1 -2 -1 -3 -4 -7 -2 -3 -6 -2 -4
0 0 -5 -2 0 0 -5 -4 -17 -5 -5 -27 -6 -28 -2 -5 -1 -22 0 -30 -5 -34 0 -1 -14 -14 -9 -2 -2 -3 -1 -1 -1 -12 -2 -9 -8 -5 0 -1 -5 -3 -5 -3
-3 0 0 0 0 0 0 -9 -6 -5 -6 -42 -42 -21 -11 -1 -2 -2 -23 -19 -19 0 0 0 0 -25 -6 -4 0 -2 -3 -8 -1 -2 -6 -3 -3 -2 -3 -3 -2 -5 -1 -2
-4 -6 0 0 -1 -9 -5 -4 -7 -7 -5 -4 -18 -7 -21 -19 -16 -1 0 -18 0 0 0 0 -3 -27 -15 -16 -8 -1 -4 -12 -10 -15 -3 -3 -4 -1 -2 -2 -4 -5 -4 -2
-17 -63 0 0 0 -2 0 -4 -9 -2 0 0 -5 -12 -108 -54 -17 -18 -36 -7 0 0 0 -1 -1 -5 -4 0 0 -8 -9 -23 -14 -2 -2 -2 0 -1 -1 -1 -1 -3 -12 -1
-9 -15 -2 0 0 0 0 0 0 0 -8 -8 -47 -36 -43 -62 -30 -16 0 -6 0 -1 -3 -1 -1 -3 0 -1 -6 -21 -37 -11 -1 -7 0 -1 -1 0 -1 -1 -1 -1 -1 -1
-2 -4 -16 -13 0 -4 0 0 0 -1 -3 -4 -20 -31 -2 -38 -27 -3 -2 -1 -2 -5 -12 -4 -1 0 -6 -8 -6 -29 -13 -3 -16 -1 -2 -2 -1 -2 -6 -5 -1 -4 -2 -1
-11 -2 -2 -12 -7 0 0 0 -1 -5 -2 -3 -3 -6 -33 -33 -11 -26 -10 -15 -2 -3 -1 -1 -2 -6 -27 -38 -6 -2 -2 -3 -3 -3 -3 -2 -3 -2 -4 -5 -1 -3 0 0
0 0 0 -4 0 0 -2 -2 -4 -3 -1 -5 -3 -4 -59 -1 -4 -2 -2 -11 -2 -2 -1 -2 -3 0 0 -1 -4 -3 -6 -11 -3 -1 -3 -1 0 0 -1 -7 -2 -1 -1 -1
0 -7 0 -4 -16 -4 -1 -1 -1 -17 -3 -2 -4 -6 -38 -48 -4 -7 -3 -7 0 -7 -1 -2 -2 -1 0 -2 -6 -1 -2 -2 -2 0 -7 0 -26 -2 -2 -4 0 -1 -1 0
0 0 0 -4 -1 0 -2 -1 0 -30 -5 -9 -8 -2 -37 -6 -3 -2 -3 -17 -2 -2 -4 -3 -7 -1 0 -1 -3 -1 -1 -4 -2 -9 0 0 -1 0 0 -2 -9 0 0 -9
0 -1 -3 0 0 0 -1 -1 0 0 0 -2 -3 -23 -20 -5 -1 -1 -3 -2 -2 -7 -2 -2 0 0 -5 -2 -1 -1 -9 -2 0 -1 -3 -4 -1 0 -7 -11 0 -1 0 -1
-2 -5 -3 -3 0 0 -1 -1 -2 -2 -2 -2 -2 -24 -12 -2 -2 -3 -1 -2 -2 -5 -3 0 -5 -1 -3 -1 -1 -1 -2 -2 -2 -8 -7 -5 -9 -6 -1 0 0 -1 -1 0
-2 -3 -2 -69 0 0 -9 -34 -1 0 -3 -2 -2 -2 -2 -3 -6 -7 -11 -7 -1 -1 -2 -19 -1 -1 0 -1 -5 0 -1 -2 -1 -1 -1 -4 -1 -1 -7 -6 -6 0 0 0
-2 -1 -3 -3 -8 -3 -20 -66 0 -1 -67 -3 0 -3 -3 -2 -2 -3 -1 -1 -2 -2 -3 -1 -1 -1 -1 -6 -1 -1 -1 -1 -3 -1 -1 -2 -7 -11 -1 -4 0 0 0 0
-2 -3 -4 -1 -5 -3 -24 -1 0 0 -82 -2 0 0 -2 -3 -2 0 0 0 -4 -2 0 0 -2 -2 -1 -3 -1 -1 -1 -1 -2 -3 -3 -1 -1 0 -1 -1 -1 -1 -1 0
-4 -16 -2 -3 -1 -7 -40 0 0 -8 -50 -12 0 0 -3 0 -4 0 0 -1 -2 -1 -1 -1 -1 -1 -8 -1 -1 -1 -1 -1 -1 -1 -2 0 -1 -6 0 -1 0 0 0 -1
-21 -2 -2 0 -2 -13 -77 0 0 -40 -23 0 0 0 -1 -2 0 -1 -4 -5 -2 -1 -1 -1 -1 -6 -1 -1 -1 -1 0 -3 -12 -1 -5 -3 -1 -3 -2 -10 -2 -5 -12 -2
-22 -8 -5 -38 -15 -7 -53 -12 0 -87 -2 0 -1 0 -1 -1 -1 -9 -4 0 -4 -1 -1 -1 -1 -1 -2 -3 -10 -3 0 -6 -1 -6 -2 -1 -1 -5 -5 -10 -12 -20 -19 -12
-25 0 -36 -10 -3 -2 -102 -82 -130 -6 -1 0 -1 0 0 -1 -2 -2 0 0 -1 0 0 0 -2 0 -1 -3 -3 0 -3 -1 -1 -1 -1 -2 -2 -2 -6 -10 -2 -3 -1 -3
-41 0 -23 -7 -52 -16 -73 -2 -1 -2 0 0 0 0 -1 -3 -6 -1 0 -1 -1 -1 -10 -1 -11 0 -1 -1 0 0 -1 -1 -9 -2 -1 -1 -2 -7 -4 -2 0 0 0 0
-16 -4 -9 -68 -1 -29 -76 -1 -1 -1 0 0 0 0 0 0 0 0 0 0 -2 -2 0 -1 -4 -1 0 -7 -1 0 -5 -6 -6 -2 -3 -3 -3 -1 -8 0 0 0 0 0
-42 -4 -2 -13 -1 0 0 0 0 -1 0 0 0 0 -1 -2 -2 0 0 -1 0 -3 -1 -1 0 -5 -7 -1 -5 -1 -1 -1 -3 -8 -3 -6 -2 -1 -1 -32 0 0 0 0
Wind_Speed
17 17 14 13 18 20 20 23 17 15 16 18 17 14 14 14 14 13 15 16 16 16 15 16 17 17 19 22 25 27 29 30 32 33 32 32 32 30 29 26 29 30 28 32
16 12 14 17 19 16 13 10 23 18 17 18 12 11 14 12 12 14 14 16 14 15 15 16 18 20 22 23 25 28 30 31 32 34 32 31 32 30 28 25 32 27 32 33
11 12 14 13 13 13 18 21 27 25 21 13 12 9 6 9 11 13 13 14 16 14 19 17 20 19 21 24 26 28 30 32 32 34 34 34 33 31 32 34 32 34 34 33
14 13 12 11 16 17 19 18 20 17 16 17 5 14 6 9 11 12 15 16 14 17 19 22 19 23 24 26 28 29 31 32 33 35 36 35 34 35 34 31 31 34 30 29
13 12 13 13 20 22 24 25 19 16 11 8 18 25 18 19 20 17 17 16 16 19 19 22 28 30 25 26 27 30 32 34 35 37 37 34 35 34 32 32 33 32 30 28
13 15 17 20 15 18 21 17 12 11 12 18 15 9 28 27 29 21 17 17 18 19 22 24 25 24 26 29 32 34 34 36 38 36 34 34 34 33 33 31 31 31 31 29
11 12 15 18 20 15 18 27 27 20 22 23 10 19 22 25 29 23 17 18 17 19 22 22 22 27 30 32 33 35 35 37 37 37 35 34 33 33 31 32 31 32 31 30
6 13 16 20 23 25 20 22 23 28 25 22 25 19 20 25 24 22 18 16 19 22 21 22 28 29 32 34 34 32 35 37 36 35 35 33 32 32 31 31 32 31 30 28
18 17 14 19 24 27 28 26 29 17 12 15 14 17 18 24 24 21 19 18 21 20 21 29 28 30 32 30 33 31 33 35 36 34 33 31 33 34 34 33 31 28 28 28
19 20 16 21 22 15 29 24 26 22 21 21 21 21 26 29 26 24 21 20 23 21 28 27 29 30 25 33 31 32 32 34 34 33 33 33 34 34 33 31 29 27 27 24
23 18 17 16 22 29 30 24 21 17 18 21 24 22 25 26 28 27 23 23 26 27 27 29 28 33 34 33 33 33 33 32 31 31 33 32 32 34 31 31 28 26 23 21
21 19 19 20 21 21 21 23 21 22 20 22 19 21 21 25 26 26 22 25 26 27 29 30 34 34 34 34 33 33 33 31 29 31 31 31 33 17 27 29 19 15 12 11
22 18 22 14 15 16 21 22 22 17 14 20 25 23 22 24 22 26 25 26 26 28 29 32 31 33 33 33 29 31 28 27 28 29 30 30 13 6 10 8 5 5 13 13
19 18 17 21 19 17 18 20 23 22 23 23 22 22 22 23 27 23 25 24 25 28 32 32 30 29 28 30 29 23 27 16 20 27 19 7 8 8 9 10 9 10 11 11
20 17 16 18 17 16 16 20 22 23 24 22 24 24 23 24 25 24 24 23 26 27 30 31 28 26 28 27 24 27 7 13 12 13 16 13 8 9 10 7 9 13 11 11
19 16 14 14 15 15 16 18 20 23 22 22 23 24 21 22 21 23 22 25 23 27 28 28 27 27 27 15 16 3 9 11 11 20 19 17 16 16 15 12 12 14 13 13
18 15 14 9 15 12 14 21 23 24 23 24 24 24 22 22 21 22 22 20 22 25 25 24 24 2 5 19 6 11 12 13 15 16 15 18 18 16 14 14 15 16 15 16
15 15 15 16 13 14 17 21 20 23 22 23 24 23 22 22 20 20 22 24 26 24 22 20 18 14 13 20 18 16 16 21 18 15 7 7 14 8 9 12 14 15 15 15
17 16 14 14 13 15 15 22 24 24 20 21 25 22 21 20 18 20 21 23 23 24 22 21 1 15 20 22 23 16 11 15 12 9 7 6 9 13 14 18 17 15 15 16
13 12 14 16 14 16 18 24 24 16 15 21 23 22 22 22 23 20 17 22 22 20 22 21 20 18 16 8 11 9 8 10 7 7 9 9 14 19 20 17 16 18 19 20
13 13 15 15 14 15 21 26 18 19 22 23 22 22 22 23 22 20 21 19 20 19 21 19 17 14 11 9 8 6 7 6 8 10 11 14 16 19 17 15 14 13 11 10
15 16 16 14 15 16 26 23 25 21 19 21 22 23 22 21 21 21 19 20 18 19 19 17 14 13 13 9 9 7 7 9 12 15 16 18 16 12 13 12 12 12 11 13
14 17 18 20 19 20 24 22 21 20 21 22 22 22 21 20 20 19 19 18 17 18 17 15 13 13 13 12 11 9 10 12 21 21 18 11 11 12 9 9 6 6 7 8
16 17 17 15 19 23 20 21 21 21 22 22 22 21 20 21 20 18 18 18 18 17 14 13 12 13 12 11 11 10 14 23 17 15 17 17 11 9 7 3 3 2 3 4
18 19 21 19 24 21 19 21 20 20 21 21 22 21 20 21 19 19 19 18 17 17 13 13 13 12 11 10 9 6 8 15 16 17 13 11 12 9 10 5 4 5 5 5
21 21 20 20 25 24 23 20 18 19 21 21 20 20 19 20 18 19 19 18 17 17 16 15 15 12 12 11 8 8 11 13 10 9 10 7 8 10 8 13 11 5 8 8
Wind_Direction
135 137 124 310 340 329 354 340 352 23 22 5 5 13 11 12 16 10 5 6 4 5 13 14 13 12 10 1 350 347 349 351 347 344 341 340 337 338 334 336 330 326 327 324
133 49 354 350 354 17 27 30 324 18 18 4 3 8 1 14 17 18 15 9 12 22 21 14 10 2 1 355 347 347 349 350 349 347 345 342 337 337 337 339 333 335 327 322
298 32 19 37 46 39 9 1 350 353 358 355 7 341 6 20 26 22 22 20 18 24 14 18 4 7 3 355 352 351 350 348 349 347 343 340 336 335 334 328 329 327 326 323
16 23 37 55 29 22 11 11 1 359 357 354 348 346 112 45 7 38 22 17 20 20 17 10 10 0 356 350 349 351 350 349 348 347 341 340 337 335 333 334 332 329 329 329
11 46 36 25 3 3 351 353 358 355 344 301 9 354 6 31 353 7 11 16 11 12 13 5 354 345 349 349 2 354 346 345 344 341 340 341 337 335 335 334 332 334 333 332
29 1 4 358 13 11 4 6 347 330 360 356 9 30 354 357 356 2 15 19 14 11 4 358 355 354 355 354 352 346 345 345 344 344 346 342 338 338 336 335 335 335 335 335
38 35 22 10 7 14 8 356 355 2 358 351 22 354 359 3 360 11 24 18 17 8 359 1 358 350 354 350 348 346 348 345 347 345 344 343 343 342 340 339 338 335 335 334
29 353 6 5 358 352 355 2 356 349 346 344 342 353 1 4 15 25 30 23 12 3 6 3 358 354 351 350 347 349 349 347 347 348 347 348 347 345 342 338 335 335 334 336
355 356 8 360 353 353 352 355 345 350 348 346 12 24 27 16 16 19 18 13 6 7 6 358 359 357 353 357 356 358 353 349 347 352 352 353 348 344 339 336 335 335 336 336
352 344 360 353 357 18 354 358 359 3 0 5 25 10 358 2 11 12 14 12 9 9 1 1 358 357 7 1 5 360 358 354 355 355 355 353 351 351 350 347 343 341 337 342
341 348 355 3 5 351 354 6 11 17 18 3 354 4 10 12 11 11 13 11 6 3 5 0 3 356 358 359 359 359 359 1 2 3 1 3 3 357 359 357 350 345 350 353
354 350 349 350 2 10 18 13 15 9 10 7 4 7 23 14 16 16 18 8 8 7 4 360 357 357 356 358 1 2 2 8 13 9 14 16 8 36 22 20 46 69 95 122
351 2 349 2 15 28 18 16 17 26 32 18 6 13 22 20 21 15 11 13 13 4 4 3 6 5 5 5 12 10 21 26 25 28 29 29 57 80 79 80 283 172 114 126
2 2 1 353 4 10 16 18 13 21 15 9 19 15 23 20 13 21 17 16 10 9 3 6 10 13 16 14 15 37 34 66 62 48 59 56 72 88 91 98 102 124 136 140
1 6 11 13 18 21 26 18 21 20 18 21 13 14 15 14 14 15 17 16 11 9 6 4 14 22 20 26 42 33 96 85 84 77 77 73 77 87 90 101 109 108 122 132
8 7 15 25 27 26 28 30 24 15 20 19 15 18 25 21 21 18 20 16 18 16 13 10 18 23 22 78 79 161 106 100 89 78 82 83 84 88 91 96 99 108 110 115
3 14 16 34 18 35 26 11 7 10 15 19 17 17 20 22 26 22 23 24 23 24 24 24 29 230 216 330 145 109 104 94 88 84 87 85 88 91 94 100 102 104 106 110
9 9 10 7 24 16 22 11 21 15 22 24 21 19 21 19 23 30 29 23 18 26 38 45 55 292 295 336 88 94 90 76 84 91 102 95 98 102 107 111 109 108 110 111
1 359 14 14 21 28 40 11 8 11 23 27 19 21 22 20 23 28 29 25 28 23 32 40 239 298 6 44 30 93 111 93 102 111 117 115 108 105 100 104 108 112 114 116
32 36 22 9 15 11 13 5 8 31 26 25 19 20 17 18 16 27 37 30 31 36 18 34 334 355 338 242 133 136 130 116 153 140 124 123 112 103 104 108 113 116 112 113
31 27 10 21 25 22 2 357 23 23 16 17 21 22 21 21 23 30 34 36 35 35 15 32 340 323 271 202 166 185 148 190 170 142 137 127 120 115 117 118 122 123 128 133
16 357 6 23 20 12 348 6 10 18 26 25 23 22 24 29 33 36 38 33 43 36 17 341 319 282 280 235 161 189 195 179 143 130 131 125 128 132 123 125 129 127 129 127
358 345 349 350 5 10 2 14 21 28 26 23 24 26 30 34 37 43 39 41 46 33 4 300 293 263 276 272 161 177 184 157 117 120 132 151 144 135 139 131 131 137 135 130
15 344 6 28 13 2 19 21 27 27 26 27 30 30 37 37 42 44 45 48 48 41 305 297 278 256 281 249 181 202 163 111 138 155 138 129 142 152 159 169 153 128 149 158
322 317 347 2 358 17 29 19 26 29 30 31 30 37 42 42 50 49 50 59 75 91 211 249 237 266 272 237 217 276 341 158 149 141 148 168 159 168 163 162 164 152 151 167
324 334 354 7 1 5 12 25 33 30 27 30 35 41 47 47 55 53 60 73 96 111 144 207 218 282 238 236 258 254 201 178 192 200 188 197 206 197 202 163 163 174 152 147